TimeEST,TemperatureF,Dew PointF,Humidity,Sea Level PressureIn,VisibilityMPH,Wind Direction,Wind SpeedMPH,Gust SpeedMPH,PrecipitationIn,Events,Conditions,WindDirDegrees,DateUTC
12:19 AM,33.1,30.9,92,30.21,7.0,Calm,Calm,-,0.02,Rain,Light Rain,0,2013-11-26 05:19:00
12:53 AM,33.1,30.9,92,30.24,7.0,ENE,3.5,-,0.06,Rain,Light Rain,60,2013-11-26 05:53:00
1:53 AM,34.0,32.0,92,30.24,5.0,Calm,Calm,-,0.09,Rain,Rain,0,2013-11-26 06:53:00
2:53 AM,34.0,32.0,92,30.24,5.0,Calm,Calm,-,0.16,Rain,Rain,0,2013-11-26 07:53:00
3:53 AM,34.0,32.0,92,30.21,6.0,Variable,3.5,-,0.08,Rain,Light Rain,0,2013-11-26 08:53:00
4:39 AM,34.0,33.1,96,30.14,6.0,NE,4.6,-,0.08,Rain,Light Rain,50,2013-11-26 09:39:00
4:53 AM,34.0,33.1,96,30.17,6.0,NE,3.5,-,0.09,Rain,Light Rain,50,2013-11-26 09:53:00
5:01 AM,34.0,33.1,96,30.13,6.0,Variable,3.5,-,0.01,Rain,Light Rain,0,2013-11-26 10:01:00
5:53 AM,35.1,33.1,92,30.16,5.0,Variable,3.5,-,0.06,Rain,Rain,0,2013-11-26 10:53:00
6:13 AM,35.1,33.1,92,30.10,6.0,NE,5.8,-,0.03,Rain,Light Rain,50,2013-11-26 11:13:00
6:53 AM,35.1,33.1,92,30.13,4.0,Variable,5.8,-,0.15,Rain,Heavy Rain,0,2013-11-26 11:53:00
7:17 AM,35.1,34.0,96,30.07,3.0,NE,4.6,-,0.14,Rain,Heavy Rain,50,2013-11-26 12:17:00
7:53 AM,36.0,34.0,93,30.12,4.0,ENE,4.6,-,0.28,Rain,Rain,70,2013-11-26 12:53:00
8:10 AM,36.0,34.0,93,30.07,3.0,ENE,4.6,-,0.04,Rain,Rain,60,2013-11-26 13:10:00
8:17 AM,36.0,34.0,93,30.07,3.0,ENE,4.6,-,0.05,Rain,Light Rain,70,2013-11-26 13:17:00
8:36 AM,36.0,35.1,97,30.06,2.5,NE,3.5,-,0.08,Rain,Rain,50,2013-11-26 13:36:00
8:53 AM,36.0,35.1,97,30.11,2.5,ENE,3.5,-,0.11,Rain,Rain,70,2013-11-26 13:53:00
9:26 AM,36.0,35.1,97,30.04,3.0,East,6.9,-,0.06,Rain,Rain,80,2013-11-26 14:26:00
9:53 AM,37.0,36.0,96,30.07,3.0,Variable,3.5,-,0.12,Rain,Rain,0,2013-11-26 14:53:00
10:00 AM,37.0,36.0,96,30.03,2.5,Variable,3.5,-,0.03,Rain,Rain,0,2013-11-26 15:00:00
10:06 AM,37.0,36.0,96,30.03,3.0,Variable,3.5,-,0.05,Rain,Rain,0,2013-11-26 15:06:00
10:31 AM,37.0,36.0,96,30.01,4.0,East,6.9,-,0.11,Rain,Rain,90,2013-11-26 15:31:00
10:44 AM,37.0,36.0,96,29.99,3.0,NE,4.6,-,0.14,Rain,Rain,50,2013-11-26 15:44:00
10:53 AM,37.0,36.0,96,30.03,4.0,ENE,6.9,-,0.16,Rain,Rain,60,2013-11-26 15:53:00
11:53 AM,37.9,37.0,97,29.96,6.0,North,-9999.0,-,0.10,Rain,Light Rain,0,2013-11-26 16:53:00
12:53 PM,39.9,39.0,97,29.92,7.0,Calm,Calm,-,0.09,Rain,Light Rain,0,2013-11-26 17:53:00
1:17 PM,41.0,39.9,96,29.88,2.0,Calm,Calm,-,0.04,Rain,Rain,0,2013-11-26 18:17:00
1:32 PM,41.0,39.9,96,29.88,3.0,Calm,Calm,-,0.08,Rain,Rain,0,2013-11-26 18:32:00
1:42 PM,41.0,39.9,96,29.87,2.5,Calm,Calm,-,0.11,Rain,Rain,0,2013-11-26 18:42:00
1:53 PM,41.0,39.9,96,29.91,2.5,Calm,Calm,-,0.15,Rain,Rain,0,2013-11-26 18:53:00
2:01 PM,42.1,39.9,92,29.86,3.0,Calm,Calm,-,0.02,Rain,Rain,0,2013-11-26 19:01:00
2:15 PM,42.1,39.9,92,29.84,3.0,ENE,5.8,-,0.05,Rain,Rain,60,2013-11-26 19:15:00
2:24 PM,42.1,41.0,96,29.84,3.0,ENE,3.5,-,0.07,Rain,Rain,60,2013-11-26 19:24:00
2:42 PM,42.1,41.0,96,29.83,4.0,ENE,4.6,-,0.10,Rain,Rain,60,2013-11-26 19:42:00
2:53 PM,42.1,41.0,96,29.84,3.0,NE,3.5,-,0.13,Rain,Rain,50,2013-11-26 19:53:00
3:02 PM,42.1,41.0,96,29.81,3.0,ENE,5.8,-,0.02,Rain,Rain,60,2013-11-26 20:02:00
3:53 PM,43.0,42.1,97,29.80,9.0,NE,5.8,-,0.08,Rain,Light Rain,50,2013-11-26 20:53:00
4:50 PM,42.8,41.0,93,29.80,2.5,Calm,Calm,-,0.03,Rain,Light Rain,0,2013-11-26 21:50:00
4:53 PM,43.0,41.0,93,29.82,2.5,Calm,Calm,-,0.03,Rain,Light Rain,0,2013-11-26 21:53:00
5:12 PM,43.0,42.1,97,29.76,3.0,Calm,Calm,-,0.01,Rain,Light Rain,0,2013-11-26 22:12:00
5:26 PM,43.0,42.1,97,29.78,4.0,Calm,Calm,-,0.02,Rain,Light Rain,0,2013-11-26 22:26:00
5:53 PM,43.0,41.0,93,29.81,7.0,Calm,Calm,-,0.02,,Overcast,0,2013-11-26 22:53:00
6:32 PM,43.0,41.0,93,29.79,8.0,Calm,Calm,-,0.00,Rain,Light Rain,0,2013-11-26 23:32:00
6:53 PM,42.1,41.0,96,29.83,4.0,ENE,3.5,-,0.01,Rain,Light Rain,70,2013-11-26 23:53:00
7:53 PM,43.0,39.9,89,29.83,10.0,North,5.8,-,0.00,,Overcast,10,2013-11-27 00:53:00
8:53 PM,39.9,37.0,89,29.85,9.0,Variable,3.5,-,0.02,Rain,Light Rain,0,2013-11-27 01:53:00
9:53 PM,39.9,36.0,86,29.86,10.0,Variable,3.5,-,0.01,Rain,Light Rain,0,2013-11-27 02:53:00
10:53 PM,37.9,34.0,86,29.87,10.0,North,8.1,18.4,0.01,Rain,Light Rain,350,2013-11-27 03:53:00
11:07 PM,37.9,34.0,86,29.84,10.0,North,8.1,-,0.01,Rain,Light Rain,350,2013-11-27 04:07:00
11:53 PM,37.9,33.1,83,29.87,10.0,NNW,9.2,17.3,0.02,Rain,Light Rain,330,2013-11-27 04:53:00